Location: B?jaj?g
(11.7167°N, 92.6667°E)
Time: 22:22:36
(UTC+00:00)

Meteor 2-4 Rocket - Pass Details

Date: 18 September 2020
Orbit: 799 x 908 km, 81.2° (Epoch: 20 October)

Event Time Altitude Azimuth Distance (km) Brightness Sun altitude
Rises 23:14:40 0° 178° (S) 3,461 6.9 -6.7°
Reaches altitude 10° 23:17:09 10° 175° (S) 2,507 6.2 -6.1°
Maximum altitude 23:22:46 63° 94° (E) 941 4.4 -4.7°
Drops below altitude 10° 23:28:13 10° 14° (NNE) 2,434 6.3 -3.4°
Sets 23:30:36 0° 11° (NNE) 3,352 7.0 -2.8°
